English version Home page |
Updated on November 17, 2012 |
プロフィール
|
軌道要素Epoch 2003 Oct. 8.0 TT = JDT 2452920.5 T 2003 Oct. 19.79747 TT MPC q 2.4507340 (2000.0) P Q n 0.10435505 Peri. 26.37371 -0.72568242 -0.62351875 a 4.4681432 Node 111.91114 +0.56278593 -0.78113229 e 0.4515095 Incl. 18.27178 +0.39579921 -0.03250722 P 9.44 From 63 observations 2003 Dec. 1-2012 Nov. 13, mean residual 0".5.
|
星図
|
光度変化m1 = 9 + 5 logΔ + 20 log r
|
軌道要素はM.P.E.C. 2012-V79に掲載されたものです。
|